Regional Weather Roundup
Issued by NWS

Home | Current Version | Previous Version | Graphics & Text | Print | Product List | Glossary On
Versions: 1 2 3 4 5 6 7 8 9 10 11 12 13 14 15 16 17 18 19 20 21 22 23 24 25 26 27 28 29 30 31 32 33 34 35 36 37 38 39 40 41 42 43 44 45 46 47 48 49 50
000
ASUS45 KCYS 220810
RWRWY

WYOMING REGIONAL WEATHER ROUNDUP
NATIONAL WEATHER SERVICE CHEYENNE WY
100 AM MST MON DEC 22 2014

NOTE:  "FAIR" INDICATES FEW OR NO CLOUDS BELOW 12,000 FEET
WITH NO SIGNIFICANT WEATHER AND/OR OBSTRUCTIONS TO VISIBILITY.

WYZ001-220900-
YELLOWSTONE NATIONAL PARK

CITY           SKY/WX    TMP DP  RH WIND       PRES   REMARKS
LK YELLOWSTONE   N/A     23  18  81 W9G18     29.80F WCI  13
W YELLOWSTONE  NOT AVBL

$$
WYZ002>013-054>058-071-098>099-220900-
NORTHERN WYOMING

CITY           SKY/WX    TMP DP  RH WIND       PRES   REMARKS
JACKSON        CLOUDY    32  21  64 CALM      29.85F
CODY           FAIR      36  16  44 W8        29.73S WCI  29
GREYBULL       FAIR      29  20  69 W12       29.73S WCI  19
WORLAND        FAIR      26  23  88 SW10      29.75S WCI  16
SHERIDAN       MOCLDY    39  22  50 NW18      29.66F WCI  30
BUFFALO        FAIR      36  17  46 NW16      29.66S WCI  26
GILLETTE       FAIR      32  29  88 NW20      29.63F WCI  20
HULETT           N/A    N/A N/A N/A MISG        N/A
NEWCASTLE      LGT SNOW  32  32 100 NW28G36   29.60R WCI  18

$$
WYZ014>020-022>026-101>103-220900-
CENTRAL WYOMING

CITY           SKY/WX    TMP DP  RH WIND       PRES   REMARKS
BIG PINEY      CLOUDY    24  17  74 N5        29.85F WCI  18
PINEDALE       FAIR      21  16  79 W9        29.85R WCI  11
DUBOIS         NOT AVBL
LANDER         CLOUDY    30  15  53 SW12      29.76F WCI  20
RIVERTON       FAIR      32  18  56 W22       29.75S WCI  19
CASPER         FAIR      28  24  85 W9        29.72R WCI  19
DOUGLAS        CLOUDY    32  27  81 NW15      29.69R WCI  22

$$
WYZ021-027>030-104>119-220900-
SOUTHERN WYOMING

CITY           SKY/WX    TMP DP  RH WIND       PRES   REMARKS
EVANSTON       CLOUDY    32  28  85 W13       29.96F WCI  22
KEMMERER       CLOUDY    30  27  86 W17G24    29.89F WCI  18
FORT BRIDGER   FAIR      33  30  88 W23G33    29.92F WCI  20
ROCK SPRINGS   FAIR      28  24  85 W16       29.84F WCI  16
DIXON          FAIR      29  26  86 NW10      29.85R WCI  20
RAWLINS        FAIR      26  17  68 W16       29.76R WCI  14
SARATOGA       FAIR      27  19  74 NW5       29.77S WCI  21
LARAMIE        FAIR      23  20  88 N17       29.69R WCI   9
CHEYENNE       CLOUDY    32  21  64 NW26G38   29.66R WCI  18
TORRINGTON     FAIR     N/A N/A N/A W13       29.63S
PINE BLUFFS    FAIR      32  27  80 NW16      29.65S WCI  21

$$


USA.gov is the U.S. government's official web portal to all federal, state and local government web resources and services.